Back to catalog

STARLINK-31186

AliveCommunicationsVLEO
NORAD 59030·PAYLOAD·🇺🇸 United States

Launched Feb 25, 2024 from Cape Canaveral Space Force Station

Loading…

Next Passes (next 24 hours)

TLE

FreshSource: CelesTrak SupGP

Epoch: Sep 14, 2026, 13:44 UTC

1 59030C 24038H   26257.57270833 -.00045322  00000+0 -16416-2 0  2575
2 59030  43.0040  40.5286 0001338 269.3840  60.5282 15.27600208    17

Track STARLINK-31186 in real time with AllMySat

Download on the App Store